Flag for Brazil Weather past 2 weeks in Santarém, Para, Brazil

Now
75 °F

Clear.


Feels Like: 74 °F
Forecast: 76 / 90 °F
Wind: No wind

Location: Santarem-Aeroporto

Current Time: Sep 2, 2014 at 12:42:53 AM

Latest Report: Sep 2, 2014 at 12:00 AM


Visibility: 10 mi

Pressure: 29.89 "Hg

Humidity: 94%

Dew point: 73 °F

Location of SantarémLocation

Historic Weather in Santarém — Graph

°F

Santarém temperature yesterday

Maximum temperature yesterday: 88 °F (at 2:00 PM)
Minimum temperature yesterday: 73 °F (at 6:00 AM)
Average temperature yesterday: 80 °F

Past Weeks' High & Low Weather Summary

 TemperatureHumidityPressure
High91 °F (Aug 19, 12:00 PM)100% (Aug 18, 3:00 AM)30.01 "Hg (Aug 18, 3:00 AM)
Low70 °F (Aug 29, 6:00 AM)44% (Aug 28, 3:00 PM)29.77 "Hg (Aug 24, 4:00 PM)
Average81 °F80%29.88 "Hg
* Reported Aug 17 11:00 PM — Sep 1 11:00 PM, Santarém, Weather by CustomWeather, © 2014

Note: Actual official high and low records may vary slightly from our data, if they occured in-between our weather recording intervals... More about our weather records

Advertising

Santarém weather history for previous 24 hours

 ConditionsComfort  
Time TempWeatherWind HumidityBarometerVisibility
11:00 PM
Sep 1
75 °FClear.No wind94%29.89 "Hg10 mi
10:00 PM77 °FClear.No wind89%29.89 "Hg10 mi
9:00 PM75 °FClear.1 mph94%29.86 "Hg10 mi
8:00 PM77 °FClear.No wind89%29.83 "Hg10 mi
7:00 PM82 °FPassing clouds.No wind74%29.83 "HgN/A
6:00 PM86 °FPassing clouds.7 mph66%29.83 "HgN/A
5:00 PM88 °FPassing clouds.7 mph62%29.83 "HgN/A
4:00 PM88 °FPassing clouds.6 mph62%29.86 "HgN/A
3:00 PM88 °FPassing clouds.5 mph62%29.86 "HgN/A
2:00 PM88 °FPassing clouds.No wind62%29.92 "HgN/A
1:00 PM86 °FScattered clouds.1 mph66%29.95 "HgN/A
12:00 PM86 °FScattered clouds.9 mph66%29.98 "HgN/A
11:00 AM86 °FScattered clouds.12 mph66%29.98 "HgN/A
10:00 AM84 °FBroken clouds.9 mph70%29.98 "HgN/A
9:00 AM82 °FPartly sunny.8 mph74%29.95 "HgN/A
8:00 AM81 °FPartly sunny.9 mph84%29.95 "HgN/A
7:00 AM75 °FPartly sunny.6 mph94%29.92 "HgN/A
6:00 AM73 °FPassing clouds.2 mph100%29.92 "HgN/A
5:00 AM75 °FPartly cloudy.2 mph94%29.92 "HgN/A
4:00 AM75 °FThunderstorms. Partly cloudy.No wind94%29.89 "HgN/A
3:00 AM75 °FThunderstorms. Partly cloudy.3 mph94%29.89 "HgN/A
2:00 AM75 °FThunderstorms. Passing clouds.3 mph94%29.92 "HgN/A
1:00 AM75 °FThundershowers. Passing clouds.3 mph94%N/AN/A
12:00 AM75 °FThundershowers. Passing clouds.3 mph94%N/AN/A
Weather by CustomWeather, © 2014

See weather overviewHow to use our weather pages